Location: Bytom
(50.3475°N, 18.9244°E)
Time: 21:48:07
(UTC+01:00)

ISS - Pass Details

Date: 28 January 2019
Orbit: 403 x 411 km, 51.6° (Epoch: 22 February)

Event Time Altitude Azimuth Distance (km) Brightness Sun altitude
Rises 17:30:23 0° 239° (WSW) 2,326 1.8 -9.7°
Reaches altitude 10° 17:32:29 10° 235° (SW) 1,470 0.3 -10.0°
Maximum altitude 17:35:43 57° 156° (SSE) 491 -3.5 -10.5°
Enters shadow 17:38:04 17° 81° (E) 1,119 -2.3 -10.9°
